Location: Fountain Hills
(33.6120°N, 111.7170°W)
Time: 18:33:33
(UTC-07:00)

Hamsat - Visible Passes

Search period start: 24 June 2016 00:00
Search period end: 04 July 2016 00:00
Orbit: 587 x 619 km, 97.6° (Epoch: 23 June)

Date Brightness Start Highest point End Pass type
(mag) Time Alt. Az. Time Alt. Az. Time Alt. Az.
24 Jun ? 04:38:44 10° NNE 04:42:49 44° E 04:46:49 10° S visible
28 Jun ? 03:53:34 10° ENE 03:55:05 12° E 03:56:35 10° ESE visible
29 Jun ? 04:04:33 10° NE 04:07:15 17° E 04:09:56 10° SE visible
30 Jun ? 04:16:02 10° NE 04:19:24 23° E 04:22:44 10° SSE visible
01 Jul ? 04:27:44 10° NNE 04:31:32 32° E 04:35:16 10° SSE visible
02 Jul ? 04:39:34 10° NNE 04:43:38 45° E 04:47:38 10° S visible
03 Jul ? 04:51:32 10° NNE 04:55:44 66° E 04:59:51 10° S visible
